Home   Weather   Samford   Past weeks

Flag for Australia Past Weather in Samford, Queensland, Australia — Yesterday and Last 2 Weeks

Now
81 °F

Passing clouds.


Feels Like: 81 °F
Forecast: 65 / 87 °F
Wind: 6 mph from West

Location: Brisbane Airport M. O

Current Time: Jan 24, 2017 at 9:33:56 am

Latest Report: Jan 24, 2017 at 8:30 am


Visibility: N/A

Pressure: 30.01 "Hg

Humidity: 48%

Dew Point: 59 °F

Location of SamfordLocation

Past Weather in Samford — Graph

°F

Samford Temperature Yesterday

Maximum temperature yesterday: 84 °F (at 2:30 pm)
Minimum temperature yesterday: 72 °F (at 3:00 am)
Average temperature yesterday: 77 °F

High & Low Weather Summary for the Past Weeks

 TemperatureHumidityPressure
High91 °F (Jan 12, 12:30 pm)100% (Jan 15, 5:00 pm)30.04 "Hg (Jan 15, 5:00 pm)
Low66 °F (Jan 24, 5:00 am)42% (Jan 23, 1:00 pm)29.59 "Hg (Jan 20, 4:00 pm)
Average80 °F75%29.86 "Hg
* Reported Jan 9 8:00 am — Jan 24 8:00 am, Samford, Weather by CustomWeather, © 2017

Note: Actual official high and low records may vary slightly from our data, if they occured in-between our weather recording intervals... More about our weather records

Advertising

Samford Weather History for the Previous 24 Hours

Scroll right to see more
 ConditionsComfort  
Time TempWeatherWind HumidityBarometerVisibility
8:00 am
Tue, Jan 24
79 °FSunny.7 mph54%30.04 "Hg10 mi
7:30 am75 °FSunny.8 mph61%30.04 "Hg10 mi
7:00 am73 °FSunny.9 mph69%30.04 "Hg10 mi
6:30 am72 °FSunny.8 mph73%30.01 "Hg10 mi
6:00 am70 °FPassing clouds.7 mph78%30.01 "HgN/A
5:30 am68 °FPassing clouds.6 mph83%30.01 "HgN/A
5:00 am66 °FPassing clouds.6 mph83%29.98 "HgN/A
4:30 am68 °FPassing clouds.1 mph83%29.98 "HgN/A
4:00 am68 °FPassing clouds.3 mph83%29.98 "HgN/A
3:30 am70 °FPassing clouds.5 mph78%29.98 "HgN/A
3:00 am68 °FPassing clouds.5 mph83%29.98 "HgN/A
2:30 am70 °FPassing clouds.6 mph78%29.98 "HgN/A
2:00 am72 °FPassing clouds.5 mph73%29.98 "HgN/A
1:30 am72 °FPassing clouds.2 mph73%29.98 "HgN/A
1:00 am72 °FPassing clouds.6 mph69%29.98 "HgN/A
12:30 am73 °FPassing clouds.8 mph65%29.98 "HgN/A
12:00 am73 °FPassing clouds.6 mph65%30.01 "HgN/A
11:30 pm
Mon, Jan 23
73 °FPassing clouds.8 mph65%30.01 "HgN/A
11:00 pm75 °FPassing clouds.9 mph61%30.01 "HgN/A
10:30 pm75 °FPassing clouds.9 mph57%30.01 "HgN/A
10:00 pm73 °FPassing clouds.8 mph65%30.01 "HgN/A
9:30 pm73 °FPassing clouds.8 mph69%30.01 "HgN/A
9:00 pm75 °FPassing clouds.6 mph61%30.01 "HgN/A
8:30 pm77 °FPassing clouds.7 mph57%30.01 "HgN/A
8:00 pm77 °FPassing clouds.7 mph57%30.01 "HgN/A
7:30 pm77 °FPassing clouds.6 mph54%30.01 "HgN/A
7:00 pm77 °FPassing clouds.8 mph54%30.01 "HgN/A
6:30 pm79 °FPassing clouds.9 mph51%29.98 "HgN/A
6:00 pm79 °FPassing clouds.10 mph51%29.98 "HgN/A
5:30 pm79 °FScattered clouds.9 mph54%29.95 "HgN/A
5:00 pm81 °FScattered clouds.9 mph51%29.95 "HgN/A
4:30 pm81 °FScattered clouds.8 mph54%29.95 "HgN/A
4:00 pm82 °FScattered clouds.9 mph51%29.95 "HgN/A
3:30 pm82 °FScattered clouds.9 mph48%29.95 "HgN/A
3:00 pm82 °FScattered clouds.9 mph48%29.95 "HgN/A
2:30 pm84 °FScattered clouds.9 mph43%29.95 "HgN/A
2:00 pm82 °FScattered clouds.9 mph45%29.95 "HgN/A
1:30 pm82 °FPassing clouds.9 mph45%29.98 "HgN/A
1:00 pm81 °FPassing clouds.8 mph42%29.98 "HgN/A
12:30 pm81 °FPassing clouds.10 mph45%29.98 "HgN/A
12:00 pm81 °FScattered clouds.12 mph45%30.01 "HgN/A
11:30 am81 °FScattered clouds.8 mph48%30.01 "HgN/A
11:00 am81 °FBroken clouds.8 mph51%30.01 "HgN/A
10:30 am81 °FBroken clouds.7 mph51%30.01 "HgN/A
10:00 am79 °FPartly sunny.6 mph51%30.04 "HgN/A
9:30 am79 °FPartly sunny.7 mph51%30.04 "HgN/A
9:00 am79 °FPartly sunny.6 mph54%30.04 "HgN/A
Weather by CustomWeather, © 2017

See weather overviewHow to use our weather pages